Hauptseite
METAR-TAF:

METAR-TAF

Flughäfen :

Easton, Maryland, Vereinigte Staaten

Breite: 38-48N, Länge: 076-04W, Höhe: 22 m

Beobachtung

Neuester Wetterbericht von vor 12 Minuten, um 05:35 UTC
Windstille
Temperatur -3°C
Luftfeuchtigkeit 80%
Luftdruck 1019 hPa
Sichtweite: 16.1 km
Himmel klar

METAR: KESN 210535Z AUTO 00000KT 10SM CLR M03/M06 A3010 RMK AO2 T10311065

Zeit: 00:47 (05:47 UTC)


TAF: fehlend

Wetterbeobachtungen und Prognosen von mehr als 4000 Flughäfen (METAR und TAF Bericht).

Die verfügbaren Stationen werden durch gelbe und rote Markierungen auf der Karte dargestellt.

Führen Sie die Maus auf sie, um den Namen der Station zu sehen.

Darauf klicken, um die Beobachtung von Wetterbeobachtungen und Prognosen zu sehen.

Um die Karte zu ändern : klicken Sie auf den grünen Tasten mit einem schwarzen Kreuz Zum Vergrößern, auf den grünen Button mit einem Gedankenstrich zu verkleinern, oder auf die grünen Pfeile für benachbarte Karten.


METAR-TAF: